Paso Robles, CA

1:07 AM PST on January 23, 2018 (GMT -0800)
Paso Robles Municipal

Weather History for KPRB - August, 2013

Change the Weather History Date:

Wednesday, August 14, 2013

  Actual Average Record
Temperature  
Mean Temperature 80 °F 73 °F  
Max Temperature 103 °F 93 °F 110 °F (1967)
Min Temperature 56 °F 54 °F 45 °F (1974)
Degree Days  
Heating Degree Days 0 0  
Month to date heating degree days 0 0  
Since 1 June heating degree days 5 31  
Since 1 July heating degree days 0 4  
Cooling Degree Days 15 8  
Month to date cooling degree days 103 125  
Year to date cooling degree days 778 602  
Since 1 June cooling degree days 648 534  
Growing Degree Days 28 (Base 50)    
Moisture  
Dew Point 44 °F    
Average Humidity 43    
Maximum Humidity 77    
Minimum Humidity 8    
Precipitation  
Precipitation 0.00 in 0.00 in 0.02 in (1984)
Month to date precipitation 0.00 0.03  
Year to date precipitation 1.46 8.82  
Since 1 July precipitation T  
Sea Level Pressure  
Sea Level Pressure 29.90 in    
Wind  
Wind Speed 7 mph (NW)    
Max Wind Speed 22 mph    
Max Gust Speed 26 mph    
Visibility 10 miles    
Events      
T = Trace of Precipitation, MM = Missing Value Source: NWS Daily Summary

Daily Weather History Graph

Daily Weather History Graph

Search for Another Location

Airport or City:

Trip Planner

Search our weather history database for the weather conditions in past years. The results will help you decide how hot, cold, wet, or windy it might be!

Date:

Astronomy

Aug. 14, 2013 Rise Set
Actual Time 6:20 AM PDT 7:52 PM PDT
Civil Twilight 5:53 AM PDT 8:19 PM PDT
Nautical Twilight 5:21 AM PDT 8:52 PM PDT
Astronomical Twilight 4:46 AM PDT 9:26 PM PDT
Moon 2:07 PM PDT (8/14) No Moon Set
Length of Visible Light 14h 25m
Length of Day
13h 31m
First Quarter, 54% of the Moon is Illuminated
Aug 14
First Quarter
Aug 20
Full
Aug 28
Last Quarter
Sep 5
New
Sep 12
First Quarter

Hourly Weather History & Observations

Time (PDT) Temp. Dew Point Humidity Pressure Visibility Wind Dir Wind Speed Gust Speed Precip Events Conditions
12:53 AM 64.9 °F 46.9 °F 52% 29.93 in 10.0 mi WNW 6.9 mph - N/A   Clear
1:53 AM 63.0 °F 46.9 °F 56% 29.93 in 10.0 mi Calm Calm - N/A   Clear
2:53 AM 60.1 °F 45.0 °F 57% 29.93 in 10.0 mi Calm Calm - N/A   Clear
3:53 AM 59.0 °F 46.0 °F 62% 29.93 in 10.0 mi Calm Calm - N/A   Clear
4:53 AM 57.9 °F 46.9 °F 67% 29.93 in 10.0 mi NW 3.5 mph - N/A   Clear
5:53 AM 55.9 °F 48.0 °F 75% 29.94 in 10.0 mi NW 3.5 mph - N/A   Clear
6:53 AM 55.9 °F 48.9 °F 77% 29.95 in 10.0 mi NNW 3.5 mph - N/A   Clear
7:53 AM 59.0 °F 50.0 °F 72% 29.96 in 10.0 mi NNW 3.5 mph - N/A   Clear
8:53 AM 64.0 °F 50.0 °F 60% 29.97 in 10.0 mi Calm Calm - N/A   Clear
9:53 AM 70.0 °F 48.9 °F 47% 29.96 in 10.0 mi Calm Calm - N/A   Clear
10:53 AM 78.1 °F 45.0 °F 31% 29.95 in 10.0 mi NW 8.1 mph - N/A   Clear
11:53 AM 86.0 °F 43.0 °F 22% 29.93 in 10.0 mi NNW 6.9 mph - N/A   Clear
12:53 PM 91.9 °F 39.0 °F 16% 29.90 in 10.0 mi WNW 6.9 mph - N/A   Clear
1:53 PM 96.1 °F 37.9 °F 13% 29.88 in 10.0 mi Calm Calm - N/A   Clear
2:53 PM 98.1 °F 36.0 °F 11% 29.86 in 10.0 mi Variable 3.5 mph - N/A   Clear
3:53 PM 100.9 °F 30.0 °F 8% 29.83 in 10.0 mi Variable 5.8 mph - N/A   Clear
4:53 PM 100.9 °F 30.9 °F 9% 29.81 in 10.0 mi NNW 10.4 mph - N/A   Clear
5:53 PM 100.0 °F 28.9 °F 8% 29.81 in 10.0 mi NNW 13.8 mph - N/A   Clear
6:53 PM 90.0 °F 39.9 °F 17% 29.82 in 10.0 mi WNW 12.7 mph - N/A   Clear
7:53 PM 82.0 °F 43.0 °F 25% 29.84 in 10.0 mi WNW 16.1 mph - N/A   Clear
8:53 PM 77.0 °F 48.9 °F 37% 29.86 in 10.0 mi NW 15.0 mph - N/A   Clear
9:53 PM 73.9 °F 48.9 °F 41% 29.88 in 10.0 mi WNW 18.4 mph - N/A   Clear
10:53 PM 70.0 °F 52.0 °F 53% 29.89 in 10.0 mi NW 11.5 mph - N/A   Clear
11:53 PM 69.1 °F 52.0 °F 54% 29.90 in 10.0 mi NW 9.2 mph - N/A   Clear